Location: Bauerbach
(50.4985°N, 10.3912°E)
Time: 21:35:21
(UTC+00:00)

Timation 2 Rocket - Pass Details

Date: 13 January 2026
Orbit: 907 x 1072 km, 70.0° (Epoch: 18 February)

Event Time Altitude Azimuth Distance (km) Brightness Sun altitude
Rises 05:48:38 0° 208° (SSW) 3,790 7.0 -13.1°
Reaches altitude 10° 05:51:16 10° 208° (SSW) 2,821 6.3 -12.7°
Maximum altitude 05:57:53 88° 123° (ESE) 1,007 4.1 -11.7°
Drops below altitude 10° 06:04:15 10° 32° (NNE) 2,720 6.5 -10.8°
Sets 06:06:45 0° 32° (NNE) 3,647 7.1 -10.4°
